Location: Unspecified
(41.9031°N, 12.4386°E)
Time: 05:54:06
(UTC+02:00)

ISS - Pass Details

Date: 04 April 2020
Orbit: 417 x 423 km, 51.6° (Epoch: 29 March)

Event Time Altitude Azimuth Distance (km) Brightness Sun altitude
Rises 20:13:12 0° 306° (NW) 2,361 1.6 -7.0°
Reaches altitude 10° 20:15:19 10° 311° (NW) 1,495 0.2 -7.3°
Maximum altitude 20:18:37 55° 31° (NNE) 506 -3.4 -7.9°
Enters shadow 20:21:40 12° 109° (ESE) 1,389 -1.8 -8.5°
